This is the latest recevied weather packets stored in our database for station/object WX8ASH-13. If no packets are shown the sender has not sent any weather packets the latest 10 day(s).
| Time | Temp. | Humidity | Pressure | Rain* | Wind** | Luminosity | Snow |
|---|---|---|---|---|---|---|---|
| 1777822837 | 12.22° C | 58% | 1017.9 hPa | 0 mm | - | - | - |
| 1777822537 | 12.22° C | 58% | 1017.9 hPa | 0 mm | - | - | - |
| 1777822236 | 12.22° C | 59% | 1018.1 hPa | 0 mm | - | - | - |
| 1777821936 | 11.67° C | 60% | 1017.9 hPa | 0 mm | - | - | - |
| 1777821636 | 11.67° C | 60% | 1018.1 hPa | 0 mm | - | - | - |
| 1777821336 | 11.67° C | 57% | 1017.9 hPa | 0 mm | - | - | - |
| 1777821036 | 11.67° C | 57% | 1017.9 hPa | 0 mm | - | - | - |
| 1777820735 | 11.11° C | 57% | 1017.9 hPa | 0 mm | - | - | - |
| 1777820436 | 11.67° C | 56% | 1017.9 hPa | 0 mm | - | - | - |
| 1777820135 | 11.11° C | 58% | 1018.1 hPa | 0 mm | - | - | - |
| 1777819835 | 11.11° C | 56% | 1018.1 hPa | 0 mm | - | - | - |
| 1777819535 | 11.11° C | 56% | 1018.1 hPa | 0 mm | - | - | - |
| 1777819235 | 11.11° C | 60% | 1018.1 hPa | 0 mm | - | - | - |
| 1777818935 | 11.11° C | 59% | 1018.1 hPa | 0 mm | - | - | - |
| 1777818635 | 11.11° C | 56% | 1018.2 hPa | 0 mm | - | - | - |
| 1777818335 | 10.56° C | 56% | 1018.1 hPa | 0 mm | - | - | - |
| 1777818034 | 10.56° C | 60% | 1018.1 hPa | 0 mm | - | - | - |
| 1777817734 | 10.56° C | 60% | 1018.2 hPa | 0 mm | - | - | - |
| 1777817434 | 10° C | 59% | 1018.2 hPa | 0 mm | - | - | - |
| 1777817134 | 10° C | 58% | 1018.2 hPa | 0 mm | - | - | - |
| 1777816834 | 9.44° C | 58% | 1018.1 hPa | 0 mm | - | - | - |
| 1777816534 | 9.44° C | 60% | 1018.3 hPa | 0 mm | - | - | - |
| 1777815638 | 8.89° C | 62% | 1018.4 hPa | 0 mm | - | - | - |
| 1777815337 | 8.89° C | 66% | 1018.5 hPa | 0 mm | - | - | - |
| 1777815037 | 8.33° C | 65% | 1018.4 hPa | 0 mm | - | - | - |
* Rain latest hour (hover to see other rain measurements)
** Current wind speed in m/s (hover to see current wind gust speed)